Precipitable_Water
0.31 0.21 0.15 0.16 0.27 0.29 0.29 0.32 0.29 0.36 0.49 0.45 0.44 0.34 0.29 0.26 0.24 0.27 0.36 0.38 0.34 0.32 0.35 0.36 0.34 0.35 0.52 0.76 0.85 0.95 1.24 1.48 1.45 1.11 0.93 0.95 0.93 1.05 1.08 1.09 1.09 1.05 1.07 1.01
0.28 0.21 0.22 0.22 0.25 0.32 0.30 0.31 0.35 0.41 0.50 0.45 0.46 0.44 0.34 0.30 0.25 0.24 0.27 0.34 0.37 0.38 0.37 0.38 0.36 0.36 0.35 0.55 0.71 0.79 0.90 1.25 1.42 1.45 1.26 1.10 1.00 1.07 1.14 1.17 1.18 1.21 1.15 1.16
0.24 0.26 0.32 0.24 0.21 0.24 0.30 0.28 0.34 0.39 0.43 0.47 0.43 0.39 0.39 0.40 0.32 0.28 0.26 0.25 0.30 0.32 0.34 0.36 0.37 0.36 0.35 0.38 0.59 0.69 0.77 0.99 1.28 1.43 1.48 1.49 1.36 1.20 1.13 1.11 1.13 1.21 1.29 1.23
0.30 0.34 0.33 0.28 0.21 0.21 0.21 0.30 0.36 0.42 0.39 0.27 0.45 0.28 0.36 0.40 0.42 0.36 0.30 0.29 0.29 0.29 0.28 0.28 0.33 0.38 0.39 0.41 0.58 0.72 0.80 0.97 1.26 1.38 1.30 1.28 1.28 1.10 1.04 1.07 1.15 1.21 1.33 1.33
0.25 0.30 0.34 0.29 0.24 0.25 0.18 0.23 0.29 0.37 0.36 0.36 0.36 0.37 0.33 0.42 0.40 0.42 0.43 0.38 0.34 0.32 0.31 0.28 0.27 0.32 0.38 0.45 0.56 0.75 0.90 1.06 1.03 1.13 1.17 1.16 1.18 1.28 1.39 1.17 1.08 1.13 1.21 1.32
0.33 0.41 0.39 0.40 0.35 0.33 0.27 0.19 0.21 0.31 0.33 0.25 0.30 0.37 0.32 0.36 0.38 0.41 0.43 0.46 0.45 0.42 0.37 0.33 0.33 0.37 0.42 0.52 0.62 0.83 0.89 1.17 1.12 1.18 1.29 1.24 1.23 1.29 1.38 1.43 1.26 1.14 1.16 1.26
0.23 0.33 0.41 0.44 0.34 0.32 0.28 0.21 0.15 0.18 0.18 0.21 0.34 0.34 0.29 0.41 0.45 0.48 0.49 0.53 0.48 0.44 0.43 0.41 0.42 0.42 0.43 0.49 0.63 0.88 1.06 1.16 1.34 1.38 1.53 1.46 1.38 1.40 1.51 1.47 1.45 1.35 1.21 1.19
0.15 0.16 0.28 0.41 0.38 0.30 0.27 0.25 0.17 0.13 0.16 0.17 0.32 0.28 0.33 0.43 0.51 0.56 0.66 0.62 0.57 0.54 0.54 0.56 0.62 0.60 0.55 0.56 0.66 0.91 1.12 1.13 1.36 1.46 1.61 1.64 1.59 1.55 1.56 1.50 1.60 1.52 1.49 1.37
0.14 0.17 0.30 0.36 0.45 0.39 0.28 0.25 0.30 0.24 0.30 0.25 0.27 0.32 0.41 0.47 0.48 0.58 0.65 0.65 0.61 0.60 0.63 0.64 0.68 0.66 0.68 0.68 0.70 0.79 1.00 1.11 1.18 1.33 1.53 1.53 1.61 1.85 1.52 1.55 1.53 1.49 1.55 1.59
0.19 0.18 0.29 0.37 0.45 0.39 0.39 0.43 0.30 0.27 0.18 0.16 0.23 0.30 0.35 0.44 0.46 0.54 0.59 0.64 0.62 0.62 0.65 0.67 0.68 0.69 0.71 0.73 0.77 0.78 0.85 0.96 1.05 1.06 1.14 1.21 1.30 1.41 1.29 1.33 1.35 1.51 1.64 1.67
0.25 0.23 0.26 0.32 0.28 0.28 0.27 0.32 0.36 0.36 0.29 0.23 0.21 0.26 0.46 0.49 0.54 0.54 0.55 0.56 0.60 0.59 0.59 0.64 0.65 0.67 0.67 0.68 0.72 0.73 0.74 0.79 0.88 0.97 1.01 1.05 1.09 1.13 1.12 1.13 1.17 1.26 1.38 1.45
0.22 0.24 0.21 0.24 0.31 0.29 0.26 0.29 0.31 0.26 0.24 0.27 0.30 0.29 0.47 0.49 0.55 0.55 0.58 0.57 0.58 0.59 0.58 0.59 0.60 0.61 0.61 0.61 0.61 0.63 0.66 0.69 0.72 0.78 0.86 0.91 0.99 1.07 1.09 1.11 1.11 1.13 1.13 1.23
0.20 0.18 0.17 0.19 0.24 0.25 0.19 0.22 0.28 0.28 0.29 0.23 0.22 0.28 0.44 0.43 0.47 0.51 0.53 0.57 0.59 0.56 0.56 0.56 0.56 0.57 0.58 0.58 0.62 0.61 0.63 0.63 0.65 0.64 0.65 0.71 0.76 0.83 0.93 1.02 1.12 1.16 1.17 1.22
0.23 0.19 0.15 0.12 0.15 0.19 0.17 0.19 0.21 0.21 0.17 0.19 0.22 0.23 0.27 0.33 0.37 0.44 0.49 0.54 0.60 0.59 0.56 0.55 0.51 0.51 0.55 0.54 0.54 0.56 0.59 0.62 0.66 0.66 0.65 0.64 0.66 0.73 0.79 0.83 0.91 1.01 1.15 1.24
0.19 0.13 0.16 0.16 0.15 0.17 0.17 0.15 0.16 0.17 0.18 0.17 0.17 0.20 0.24 0.28 0.31 0.36 0.44 0.50 0.50 0.57 0.55 0.53 0.50 0.46 0.50 0.51 0.52 0.55 0.57 0.59 0.61 0.60 0.62 0.66 0.68 0.64 0.66 0.67 0.72 0.75 0.81 0.91
0.19 0.13 0.15 0.12 0.15 0.14 0.11 0.15 0.17 0.18 0.18 0.17 0.21 0.24 0.32 0.31 0.34 0.35 0.38 0.42 0.43 0.43 0.46 0.47 0.53 0.57 0.51 0.49 0.52 0.55 0.56 0.57 0.58 0.56 0.55 0.55 0.55 0.56 0.57 0.56 0.65 0.64 0.65 0.68
0.15 0.14 0.12 0.08 0.13 0.12 0.13 0.16 0.18 0.22 0.25 0.23 0.21 0.27 0.32 0.31 0.32 0.33 0.35 0.36 0.36 0.37 0.39 0.40 0.42 0.44 0.49 0.51 0.53 0.49 0.50 0.53 0.51 0.50 0.49 0.50 0.53 0.51 0.54 0.56 0.64 0.66 0.63 0.63
0.15 0.15 0.14 0.10 0.13 0.06 0.17 0.23 0.24 0.22 0.25 0.26 0.27 0.30 0.31 0.32 0.33 0.36 0.38 0.35 0.34 0.35 0.35 0.37 0.39 0.40 0.41 0.42 0.43 0.44 0.46 0.46 0.46 0.47 0.48 0.46 0.45 0.48 0.48 0.50 0.53 0.59 0.64 0.61
0.20 0.17 0.13 0.10 0.11 0.12 0.18 0.25 0.23 0.22 0.21 0.26 0.23 0.26 0.29 0.31 0.32 0.33 0.39 0.38 0.36 0.37 0.38 0.39 0.41 0.41 0.41 0.40 0.42 0.41 0.40 0.41 0.42 0.43 0.44 0.46 0.45 0.42 0.42 0.43 0.48 0.58 0.61 0.62
0.20 0.21 0.17 0.15 0.11 0.08 0.16 0.22 0.25 0.27 0.18 0.28 0.27 0.26 0.26 0.27 0.20 0.23 0.34 0.38 0.37 0.38 0.38 0.36 0.37 0.39 0.39 0.40 0.42 0.40 0.38 0.39 0.38 0.40 0.40 0.42 0.41 0.41 0.41 0.41 0.44 0.50 0.55 0.57
0.16 0.17 0.15 0.14 0.13 0.15 0.22 0.24 0.26 0.16 0.18 0.27 0.27 0.26 0.26 0.26 0.27 0.29 0.33 0.34 0.37 0.38 0.38 0.38 0.39 0.38 0.39 0.41 0.41 0.38 0.39 0.38 0.42 0.44 0.42 0.41 0.41 0.39 0.39 0.39 0.41 0.43 0.45 0.54
0.15 0.15 0.14 0.16 0.13 0.10 0.26 0.23 0.18 0.23 0.26 0.26 0.25 0.25 0.26 0.29 0.30 0.31 0.33 0.34 0.34 0.35 0.36 0.38 0.37 0.38 0.39 0.40 0.38 0.35 0.35 0.41 0.44 0.46 0.45 0.43 0.40 0.42 0.43 0.40 0.40 0.42 0.44 0.44
0.13 0.16 0.15 0.17 0.15 0.22 0.25 0.24 0.26 0.28 0.29 0.29 0.30 0.31 0.32 0.32 0.34 0.36 0.35 0.36 0.36 0.35 0.35 0.35 0.34 0.32 0.34 0.36 0.37 0.34 0.35 0.38 0.38 0.40 0.43 0.46 0.48 0.46 0.44 0.42 0.41 0.42 0.45 0.44
0.18 0.22 0.18 0.18 0.18 0.21 0.22 0.27 0.31 0.34 0.34 0.37 0.39 0.39 0.39 0.37 0.37 0.37 0.36 0.35 0.35 0.36 0.35 0.36 0.34 0.33 0.34 0.38 0.40 0.40 0.41 0.43 0.43 0.40 0.41 0.44 0.47 0.50 0.51 0.47 0.45 0.44 0.43 0.43
0.20 0.20 0.16 0.16 0.18 0.22 0.26 0.30 0.32 0.34 0.37 0.37 0.38 0.37 0.35 0.34 0.33 0.34 0.33 0.34 0.35 0.36 0.37 0.37 0.37 0.37 0.38 0.41 0.41 0.42 0.43 0.44 0.41 0.40 0.39 0.39 0.40 0.44 0.48 0.52 0.50 0.47 0.50 0.50
0.20 0.17 0.16 0.15 0.22 0.24 0.24 0.32 0.38 0.35 0.32 0.32 0.31 0.29 0.29 0.30 0.29 0.31 0.31 0.34 0.36 0.36 0.39 0.38 0.38 0.37 0.36 0.37 0.38 0.40 0.42 0.42 0.41 0.41 0.42 0.42 0.42 0.42 0.45 0.51 0.51 0.57 0.54 0.54
Wind_Speed
22 29 38 42 46 45 44 40 44 39 39 37 40 46 46 41 40 43 43 45 44 42 40 39 37 36 37 39 39 39 39 38 38 38 38 37 35 32 30 28 27 26 24 23
18 25 33 37 40 44 43 42 38 38 37 36 39 41 43 43 40 42 42 43 46 47 43 43 42 40 39 42 42 42 42 41 41 40 39 38 38 36 34 31 30 29 28 26
16 20 21 32 38 40 42 41 37 34 34 37 33 40 41 42 41 42 43 43 42 45 48 47 45 46 46 45 46 45 44 44 43 42 40 38 38 38 37 35 33 32 32 31
9 10 17 26 32 37 38 39 38 34 29 32 25 30 38 35 34 36 43 42 41 42 43 44 42 39 37 42 47 48 46 45 44 43 43 42 40 40 40 39 37 36 35 34
13 18 10 14 23 29 35 36 38 32 32 27 32 25 33 34 36 36 36 37 41 43 41 40 39 38 39 38 41 46 47 46 44 44 43 43 43 41 40 41 41 39 38 37
9 7 5 8 20 24 25 27 30 30 25 28 34 27 29 29 35 36 36 37 40 41 40 39 35 34 35 36 37 43 45 47 45 44 43 43 43 43 41 41 41 41 41 40
11 7 4 6 10 16 17 22 21 24 26 26 23 26 33 25 26 28 31 26 29 33 34 33 33 33 32 34 35 39 42 43 44 45 46 45 42 42 42 41 40 41 42 43
10 8 6 7 2 12 16 19 20 20 21 26 25 21 19 20 26 22 18 16 15 21 25 27 27 31 30 30 31 34 38 41 41 42 43 41 41 44 42 41 39 39 41 44
8 4 9 9 4 6 12 12 16 17 19 18 21 21 19 15 12 11 12 11 11 14 18 21 21 24 26 26 28 29 30 34 36 39 42 40 40 37 36 42 41 41 42 42
8 5 9 9 4 6 7 6 10 17 17 18 20 16 13 11 13 15 16 16 13 13 16 17 19 20 22 23 26 27 27 28 31 31 33 35 36 37 38 40 40 42 41 42
9 3 5 5 5 5 2 2 5 10 14 12 14 17 15 11 10 13 19 20 18 15 15 17 19 20 21 23 23 25 26 26 27 28 29 30 32 33 32 33 37 39 41 43
10 3 2 2 2 5 1 1 2 3 6 12 9 12 13 16 14 13 18 20 20 22 19 19 20 21 20 23 25 26 27 27 27 28 29 30 31 32 32 33 35 37 39 41
14 6 3 3 3 2 3 5 5 6 7 11 9 8 10 14 15 15 15 17 20 21 22 21 21 21 22 22 23 25 26 28 30 29 30 32 33 34 35 37 38 39 40 41
12 8 5 4 9 11 9 11 8 8 8 11 14 13 10 10 14 17 17 19 16 18 20 21 20 24 25 26 26 27 28 28 29 29 32 33 34 36 37 38 39 40 41 43
11 6 6 8 11 11 12 14 13 13 14 12 15 14 13 11 11 16 17 17 19 21 21 24 25 23 24 25 28 28 29 30 30 30 32 33 34 36 37 38 38 39 40 41
12 8 9 9 8 10 13 11 10 11 13 16 10 9 12 10 7 6 7 10 14 14 15 18 23 25 24 25 27 29 30 31 32 32 32 33 35 35 36 36 36 36 37 38
10 9 10 8 9 9 4 6 8 7 5 6 9 14 12 11 11 12 12 13 13 15 17 19 20 21 23 25 30 30 31 32 33 34 34 35 36 36 36 36 37 37 37 37
9 10 9 8 10 5 6 9 4 2 4 8 10 13 15 16 19 19 19 20 21 22 22 24 25 26 27 28 29 30 33 35 37 38 39 39 39 39 39 39 40 40 40 39
7 9 10 8 8 9 6 6 8 10 8 8 12 15 17 19 21 24 25 25 26 27 27 28 29 31 33 33 35 36 37 38 39 39 40 41 41 42 42 42 42 42 42 42
7 9 9 10 8 7 7 11 12 12 11 11 12 14 16 18 21 24 27 29 29 31 32 33 35 36 38 39 40 40 41 42 43 44 45 46 47 48 49 49 48 48 47 45
9 9 8 10 9 11 11 14 13 9 13 19 18 20 19 19 20 24 26 26 29 31 32 34 35 36 37 38 40 40 41 42 45 47 49 49 49 50 49 50 49 48 47 46
9 9 10 10 10 12 11 13 12 16 21 23 25 24 23 23 24 24 24 26 29 31 32 33 33 34 35 36 37 40 42 43 45 46 47 49 50 49 48 48 48 49 48 48
12 10 10 9 11 14 18 18 20 19 20 21 21 23 24 24 23 24 25 26 27 26 28 30 33 36 37 38 40 42 44 45 47 46 46 46 47 48 49 51 51 50 50 50
13 13 13 15 15 17 21 19 18 18 19 20 20 19 19 22 23 24 26 28 28 29 30 30 31 32 33 36 38 40 41 43 44 46 47 49 49 49 48 50 51 52 52 51
14 16 16 17 19 17 15 18 19 21 21 18 18 19 20 22 24 25 27 28 30 31 33 34 34 34 34 34 35 37 38 40 41 43 45 46 47 48 47 47 48 49 51 51
15 15 13 13 14 16 16 19 19 17 18 19 21 23 24 24 26 26 27 28 29 31 32 33 33 34 35 36 37 38 39 40 42 43 43 43 43 44 45 44 44 44 46 47
Wind_Direction
265 244 235 233 231 234 236 237 236 235 234 236 235 238 237 235 233 232 233 233 233 235 235 237 236 236 235 232 230 229 228 229 228 228 228 230 232 233 235 236 236 235 234 234
270 254 242 234 233 231 232 235 238 237 237 233 237 239 238 235 234 234 233 234 236 237 237 239 241 240 237 237 235 232 230 229 230 230 231 233 233 234 235 235 236 237 237 236
278 266 248 235 230 229 231 231 231 238 240 241 240 242 238 235 234 234 234 237 236 237 240 241 244 243 241 238 236 234 231 229 230 232 233 233 234 235 234 236 237 238 238 239
293 288 274 241 230 226 230 228 229 237 237 232 235 241 236 232 234 233 234 235 236 236 237 238 238 238 236 236 236 234 231 228 229 231 233 233 236 236 237 238 238 238 239 239
297 291 269 250 229 228 230 230 230 233 238 242 235 236 234 236 236 237 234 236 237 237 236 235 234 236 237 236 236 232 231 229 230 230 232 234 236 239 240 239 238 239 240 241
347 352 286 281 244 234 230 224 224 229 231 232 230 228 234 232 234 238 239 243 243 239 237 234 232 234 237 235 237 230 229 230 231 231 233 233 236 239 239 239 240 241 242 243
336 345 347 342 257 222 218 211 216 218 218 223 221 221 233 236 238 240 240 248 242 240 232 230 232 234 235 235 234 231 230 230 232 233 234 235 236 238 239 240 242 242 243 244
347 326 343 350 311 225 226 207 207 211 213 225 220 223 223 242 239 237 226 227 232 225 222 225 229 229 229 231 233 230 229 230 230 232 234 236 238 238 238 240 242 245 246 245
352 334 340 332 314 212 210 208 224 221 218 222 218 226 225 251 236 216 203 206 214 221 217 218 219 223 224 226 227 228 226 228 232 235 236 239 242 240 244 244 247 247 250 247
346 329 360 29 99 75 153 217 206 210 213 220 221 215 220 244 242 224 215 221 216 222 224 216 217 220 221 222 222 222 224 227 232 235 237 239 242 247 250 248 248 250 248 250
6 19 357 30 43 45 143 62 204 208 217 211 212 212 228 232 238 229 229 227 225 222 222 223 225 222 222 222 221 221 225 229 232 236 238 240 244 248 251 251 251 252 252 253
3 6 335 349 323 59 142 123 193 211 234 212 219 207 234 231 236 243 236 231 234 231 232 228 228 229 230 230 227 227 228 230 234 238 241 244 247 250 253 255 255 255 256 256
5 344 322 304 315 303 294 273 241 225 215 206 208 234 234 236 231 236 242 230 237 237 235 236 236 233 234 231 231 231 232 236 238 242 246 249 252 255 258 260 261 260 258 258
5 6 7 273 267 278 289 297 274 237 231 232 231 247 270 239 237 232 243 233 230 237 240 238 245 244 240 240 242 241 241 243 243 246 249 252 256 258 260 261 262 261 261 260
2 346 343 323 295 286 285 281 277 257 250 236 248 268 278 267 247 228 230 238 237 236 246 250 251 250 247 248 247 245 246 247 249 252 256 257 258 260 263 263 263 262 262 261
355 346 338 318 301 309 301 279 265 261 264 246 239 245 263 253 239 220 211 226 225 233 240 246 248 249 252 254 253 252 253 253 253 255 257 259 261 262 264 264 263 263 263 263
350 357 350 334 321 311 321 327 302 265 302 244 243 247 253 251 249 248 254 256 261 261 260 262 258 260 260 258 256 258 256 257 258 259 261 261 262 263 262 263 262 263 264 265
348 353 359 338 347 341 271 311 327 320 284 265 258 261 260 261 259 256 265 266 267 269 271 272 267 264 263 263 263 261 260 259 260 261 262 263 263 262 262 262 262 263 264 265
342 359 354 360 343 313 310 310 290 297 279 292 287 272 267 270 266 258 267 269 270 273 274 273 269 266 268 268 267 265 264 263 262 261 262 263 263 263 263 263 263 263 263 264
336 338 346 351 348 322 314 312 303 288 270 299 296 285 285 278 273 270 270 269 272 274 275 275 274 272 271 271 270 269 267 265 264 265 265 265 266 265 264 264 263 262 262 263
334 334 325 330 324 315 314 314 303 291 277 295 292 286 283 278 277 276 275 275 275 275 276 278 276 276 275 273 271 270 269 267 268 268 267 267 266 265 264 263 262 261 261 260
317 323 317 330 330 318 326 319 312 291 291 290 288 285 280 281 282 282 280 279 280 279 279 279 279 277 275 276 275 274 272 272 271 271 270 268 267 265 264 262 261 260 259 260
308 302 311 305 306 306 311 306 303 301 298 298 295 288 285 283 283 282 282 284 286 285 284 284 282 281 279 277 277 275 274 274 274 271 269 270 268 265 264 262 260 260 258 258
303 305 303 315 310 310 307 309 305 305 303 303 304 300 295 290 289 286 286 287 286 285 286 287 287 286 284 282 280 278 277 277 274 273 271 268 268 267 266 264 261 258 256 258
291 303 300 301 307 309 309 313 310 309 305 303 304 306 305 301 296 292 290 289 288 287 287 286 285 285 285 285 284 283 282 280 278 276 274 271 267 266 266 263 261 258 256 258
289 289 294 298 303 310 309 312 313 313 313 311 308 306 305 303 300 297 294 292 292 292 290 289 286 285 286 287 286 285 284 282 280 279 276 272 269 266 263 262 261 259 258 258